Change the Weather History Date:

Tuesday, April 8, 2014

  Actual Average Record
Temperature  
Mean Temperature 36 °F 33 °F  
Max Temperature 40 °F 41 °F 46 °F (2004)
Min Temperature 32 °F 25 °F 7 °F (2003)
Degree Days  
Heating Degree Days 29    
Month to date heating degree days 264  
Since 1 July heating degree days 8780  
Cooling Degree Days 0    
Month to date cooling degree days 0  
Year to date cooling degree days 0  
Moisture  
Dew Point 33 °F    
Average Humidity 93    
Maximum Humidity 100    
Minimum Humidity 55    
Precipitation  
Precipitation 0.31 in 0.09 in 0.31 in (2014)
Month to date precipitation 0.56 0.69  
Year to date precipitation 4.51 4.74  
Sea Level Pressure  
Sea Level Pressure 29.52 in    
Wind  
Wind Speed 12 mph (ESE)    
Max Wind Speed 25 mph    
Max Gust Speed 34 mph    
Visibility 3 miles    
Events Fog , Rain , Snow , Thunderstorm    
T = Trace of Precipitation, MM = Missing Value Source: NWS Daily Summary

Daily Weather History Graph

Daily Weather History Graph

Search for Another Location

Airport or City:

Trip Planner

Search our weather history database for the weather conditions in past years. The results will help you decide how hot, cold, wet, or windy it might be!

Date:

Astronomy

Apr. 08, 2014 Rise Set
Actual Time 5:58 AM EDT 7:12 PM EDT
Civil Twilight 5:27 AM EDT 7:44 PM EDT
Nautical Twilight 4:49 AM EDT 8:22 PM EDT
Astronomical Twilight 4:08 AM EDT 9:02 PM EDT
Moon 12:39 PM EDT (4/8) 2:32 AM EDT (4/8)
Length of Visible Light 14h 17m
Length of Day
13h 14m
Waxing Gibbous, 62% of the Moon is Illuminated
Apr 8
Waxing Gibbous
Apr 15
Full
Apr 22
Last Quarter
Apr 29
New
May 6
First Quarter

Hourly Weather History & Observations

Time (EDT) Temp. Windchill Dew Point Humidity Pressure Visibility Wind Dir Wind Speed Gust Speed Precip Events Conditions
12:53 AM 39.0 °F 31.8 °F 26.1 °F 60% 29.98 in 10.0 mi SSE 11.5 mph - N/A   Clear
1:53 AM 37.9 °F 29.6 °F 25.0 °F 60% 29.96 in 10.0 mi SSE 13.8 mph - N/A   Clear
2:53 AM 37.0 °F 29.8 °F 25.0 °F 62% 29.96 in 10.0 mi SE 10.4 mph - N/A   Overcast
3:53 AM 37.0 °F 29.3 °F 24.1 °F 59% 29.94 in 10.0 mi SSE 11.5 mph - N/A   Overcast
4:53 AM 37.9 °F 30.0 °F 23.0 °F 55% 29.91 in 10.0 mi SSE 12.7 mph 23.0 mph N/A   Overcast
5:53 AM 35.1 °F 25.5 °F 28.0 °F 76% 29.86 in 10.0 mi SE 15.0 mph - 0.00 in   Overcast
6:25 AM 34.0 °F 25.0 °F 28.9 °F 82% 29.82 in 10.0 mi ESE 12.7 mph - 0.00 in Rain Light Rain
6:53 AM 34.0 °F 26.0 °F 30.0 °F 85% 29.81 in 9.0 mi ESE 10.4 mph - 0.00 in Snow Light Snow
7:27 AM 34.0 °F 28.0 °F 30.9 °F 89% 29.82 in 8.0 mi SE 6.9 mph - 0.01 in Rain Light Rain
7:53 AM 33.1 °F 23.9 °F 32.0 °F 96% 29.78 in 5.0 mi ESE 12.7 mph - 0.04 in Rain Light Rain
8:22 AM 33.1 °F 22.6 °F 32.0 °F 96% 29.76 in 3.0 mi ESE 16.1 mph 25.3 mph 0.04 in Snow Light Snow
8:29 AM 33.1 °F 23.4 °F 32.0 °F 96% 29.76 in 1.8 mi ESE 13.8 mph 21.9 mph 0.06 in Snow Light Snow
8:37 AM 32.0 °F 21.2 °F 30.9 °F 96% 29.75 in 1.5 mi ESE 16.1 mph 21.9 mph 0.09 in Snow Light Snow
8:43 AM 32.0 °F 21.2 °F 30.9 °F 96% 29.74 in 1.8 mi ESE 16.1 mph 23.0 mph 0.10 in Snow Light Snow
8:53 AM 32.0 °F 21.6 °F 30.9 °F 96% 29.75 in 2.5 mi East 15.0 mph - 0.11 in Snow Light Snow
9:06 AM 32.0 °F 20.8 °F 30.9 °F 96% 29.70 in 1.8 mi East 17.3 mph 24.2 mph 0.01 in Snow Light Snow
9:20 AM 32.0 °F 22.1 °F 30.9 °F 96% 29.69 in 1.2 mi East 13.8 mph 25.3 mph 0.02 in Snow Light Snow
9:53 AM 32.0 °F 19.8 °F 30.9 °F 96% 29.65 in 0.8 mi East 20.7 mph 26.5 mph 0.04 in Snow Light Snow
10:09 AM 32.0 °F 20.5 °F 30.9 °F 96% 29.60 in 1.2 mi ESE 18.4 mph 29.9 mph 0.01 in Snow Light Snow
10:31 AM 32.0 °F 19.8 °F 30.9 °F 96% 29.55 in 1.8 mi East 20.7 mph 34.5 mph 0.01 in Snow Light Snow
10:33 AM 32.0 °F 20.1 °F 30.9 °F 96% 29.55 in 3.0 mi East 19.6 mph 34.5 mph 0.01 in Snow Light Snow
10:53 AM 32.0 °F 19.5 °F 30.9 °F 96% 29.53 in 4.0 mi East 21.9 mph 33.4 mph 0.02 in   Overcast
11:22 AM 34.0 °F 23.0 °F 33.1 °F 96% 29.53 in 2.0 mi SE 18.4 mph 26.5 mph 0.00 in Snow Light Snow
11:27 AM 34.0 °F 23.0 °F 33.1 °F 96% 29.52 in 1.5 mi SE 18.4 mph 23.0 mph 0.00 in Snow Light Snow
11:35 AM 34.0 °F 23.4 °F 33.1 °F 96% 29.51 in 1.0 mi SE 17.3 mph 25.3 mph 0.00 in Snow Light Snow
11:53 AM 34.0 °F 23.4 °F 33.1 °F 96% 29.51 in 1.5 mi ESE 17.3 mph 24.2 mph 0.01 in   Overcast
12:06 PM 34.0 °F 23.8 °F 34.0 °F 100% 29.48 in 2.0 mi ESE 16.1 mph - 0.00 in Rain Light Rain
12:53 PM 35.1 °F 25.5 °F 35.1 °F 100% 29.44 in 2.0 mi SE 15.0 mph - 0.01 in Rain Light Rain
1:06 PM 35.1 °F 25.9 °F 35.1 °F 100% 29.40 in 1.8 mi ESE 13.8 mph - 0.00 in Rain Light Rain
1:20 PM 36.0 °F 26.7 °F 36.0 °F 100% 29.39 in 2.0 mi SE 15.0 mph - 0.00 in   Overcast
1:53 PM 37.0 °F 27.7 °F 36.0 °F 96% 29.37 in 1.8 mi SE 16.1 mph - 0.01 in   Overcast
2:14 PM 37.0 °F 28.9 °F 37.0 °F 100% 29.34 in 1.2 mi ESE 12.7 mph 21.9 mph 0.00 in   Overcast
2:31 PM 37.0 °F 30.4 °F 37.0 °F 100% 29.33 in 1.5 mi ESE 9.2 mph - 0.00 in   Overcast
2:53 PM 37.0 °F 31.0 °F 37.0 °F 100% 29.34 in 1.0 mi East 8.1 mph - 0.00 in Rain Light Rain
3:02 PM 37.0 °F 31.0 °F 37.0 °F 100% 29.31 in 1.8 mi ESE 8.1 mph - 0.00 in Rain Light Rain
3:15 PM 37.0 °F 30.4 °F 37.0 °F 100% 29.30 in 1.2 mi ESE 9.2 mph - 0.00 in   Overcast
3:25 PM 37.0 °F 31.0 °F 37.0 °F 100% 29.29 in 0.5 mi East 8.1 mph - 0.00 in Fog Fog
3:53 PM 37.9 °F 30.5 °F 37.9 °F 100% 29.28 in 1.0 mi East 11.5 mph - 0.00 in   Overcast
4:00 PM 37.9 °F 30.9 °F 37.0 °F 97% 29.26 in 0.5 mi ESE 10.4 mph - N/A Fog Fog
4:53 PM 37.9 °F 30.5 °F 37.9 °F 100% 29.22 in 0.2 mi East 11.5 mph - N/A Fog Fog
5:30 PM 37.9 °F 31.5 °F 37.9 °F 100% 29.21 in 0.2 mi SE 9.2 mph - 0.03 in Fog , Rain , Thunderstorm Rain
5:53 PM 37.9 °F 32.7 °F 37.9 °F 100% 29.22 in 0.2 mi ESE 6.9 mph - 0.05 in Fog , Rain , Thunderstorm Light Rain
6:01 PM 37.9 °F 33.5 °F 37.9 °F 100% 29.20 in 0.2 mi SE 5.8 mph - 0.00 in Fog Fog
6:53 PM 37.9 °F 32.1 °F 37.9 °F 100% 29.21 in 0.5 mi ESE 8.1 mph - 0.01 in Fog , Rain Light Rain
7:53 PM 37.9 °F 32.1 °F 37.9 °F 100% 29.19 in 0.2 mi ESE 8.1 mph - 0.01 in Fog Fog
8:53 PM 37.0 °F 32.4 °F 37.0 °F 100% 29.19 in 0.2 mi SE 5.8 mph - N/A Fog Fog
9:53 PM 37.9 °F 32.7 °F 37.9 °F 100% 29.18 in 0.2 mi South 6.9 mph - N/A Fog Fog
10:53 PM 37.9 °F 34.4 °F 37.9 °F 100% 29.17 in 0.2 mi SSW 4.6 mph - N/A Fog Fog
11:53 PM 37.9 °F 32.7 °F 37.9 °F 100% 29.16 in 0.2 mi SSW 6.9 mph - N/A Fog Fog